Location: Unspecified
(49.2170°N, 0.0000°E)
Time: 15:20:43
(UTC+00:00)

A-11 Canister half - Visible Passes

Search period start: 25 January 2021 00:00
Search period end: 04 February 2021 00:00
Orbit: 1524 x 1684 km, 47.3° (Epoch: 24 January)

Date Brightness Start Highest point End Pass type
(mag) Time Alt. Az. Time Alt. Az. Time Alt. Az.
25 Jan 9.2 18:14:54 10° W 18:24:23 75° SSW 18:32:39 16° ESE visible
25 Jan 9.7 20:19:51 10° WNW 20:28:42 43° SW 20:30:59 38° S visible
25 Jan 11.1 22:27:25 10° W 22:29:19 12° WSW 22:29:19 12° WSW visible
26 Jan 9.2 17:53:15 10° W 18:02:44 76° SSW 18:12:32 10° ESE visible
26 Jan 9.8 19:58:12 10° WNW 20:07:05 44° SW 20:10:58 32° S visible
26 Jan 10.9 22:05:25 10° W 22:09:19 15° WSW 22:09:19 15° WSW visible
27 Jan 9.2 17:31:37 10° W 17:41:05 76° S 17:50:52 10° ESE visible
27 Jan 9.8 19:36:32 10° WNW 19:45:28 46° SW 19:51:04 24° SSE visible
27 Jan 10.9 21:43:28 10° W 21:48:37 16° SW 21:49:25 16° SW visible
28 Jan 9.3 17:09:59 10° W 17:19:25 77° S 17:29:11 10° ESE visible
28 Jan 9.8 19:14:53 10° WNW 19:23:51 47° SSW 19:31:16 17° SSE visible
28 Jan 10.8 21:21:33 10° W 21:27:04 17° SW 21:29:38 15° SW visible
29 Jan 9.8 18:53:14 10° WNW 19:02:13 49° SSW 19:11:31 10° SE visible
29 Jan 10.9 20:59:41 10° W 21:05:30 18° SW 21:10:00 13° SSW visible
30 Jan 9.8 18:31:35 10° WNW 18:40:36 50° SSW 18:49:55 10° SE visible
30 Jan 10.9 20:37:51 10° W 20:43:56 19° SW 20:50:09 10° SSW visible
31 Jan 9.8 18:09:56 10° WNW 18:18:59 52° SSW 18:28:19 10° SE visible
31 Jan 10.9 20:16:02 10° W 20:22:22 20° SW 20:28:50 10° S visible
01 Feb 9.8 17:48:17 10° WNW 17:57:22 53° SSW 18:06:44 10° SE visible
01 Feb 10.9 19:54:15 10° W 20:00:48 21° SW 20:07:31 10° S visible
02 Feb 9.8 17:26:39 10° WNW 17:35:44 55° SSW 17:45:07 10° SE visible
02 Feb 10.9 19:32:28 10° W 19:39:14 22° SW 19:46:10 10° S visible
03 Feb 10.9 19:10:43 10° W 19:17:40 23° SW 19:24:47 10° S visible
